Location: Kunchanapalle
(16.4623°N, 80.6176°E)
Time: 17:50:56
(UTC+00:00)

SAR-Lupe-4 - Pass Details

Date: 13 August 2020
Orbit: 481 x 485 km, 98.2° (Epoch: 16 September)

Event Time Altitude Azimuth Distance (km) Brightness Sun altitude
Rises 23:34:29 0° 178° (S) 2,528 7.0 -11.6°
Reaches altitude 10° 23:36:35 10° 183° (S) 1,650 6.0 -11.1°
Maximum altitude 23:40:00 48° 259° (WSW) 633 3.7 -10.3°
Drops below altitude 10° 23:43:27 10° 335° (NNW) 1,653 6.2 -9.6°
Sets 23:45:33 0° 341° (NNW) 2,533 7.2 -9.1°
